Date,TemperatureHighF,TemperatureAvgF,TemperatureLowF,DewpointHighF,DewpointAvgF,DewpointLowF,HumidityHigh,HumidityAvg,HumidityLow,PressureMaxIn,PressureMinIn,WindSpeedMaxMPH,WindSpeedAvgMPH,GustSpeedMaxMPH,PrecipitationSumIn
2014-2-1,34.0,28.6,24.3,30.3,26.3,22.3,94,91,86,29.88,29.56,4,0,0,0.00
2014-2-2,26.8,22.5,10.4,24.0,17.7,7.6,89,82,69,30.08,29.83,6,0,0,0.00
2014-2-3,27.0,9.4,-5.3,16.5,4.4,-8.6,91,81,61,30.19,30.04,5,1,0,0.00
2014-2-4,24.6,13.6,1.8,16.2,7.7,-1.4,89,78,51,30.21,29.86,11,2,0,0.00
2014-2-5,24.4,20.4,17.6,18.8,16.3,13.3,90,84,75,30.21,29.70,11,6,0,0.00
2014-2-6,18.3,3.6,-7.2,14.6,-0.8,-10.5,91,82,71,30.21,30.13,14,6,0,0.00
2014-2-7,10.2,0.1,-9.8,0.6,-5.7,-13.1,85,76,62,30.20,30.12,13,6,0,0.00
2014-2-8,19.2,10.8,3.2,13.5,5.8,-2.1,89,80,70,30.17,29.93,6,3,0,0.00
2014-2-9,19.4,13.7,3.9,12.4,9.0,0.9,91,82,63,30.05,29.85,9,2,0,0.00
2014-2-10,14.2,2.5,-9.9,5.7,-2.5,-13.4,89,80,60,30.25,30.05,8,2,0,0.00
2014-2-11,16.2,-1.3,-15.7,6.2,-6.6,-19.3,88,78,62,30.30,30.21,5,1,0,0.00
2014-2-12,25.3,8.6,-7.8,11.7,1.5,-11.3,88,74,52,30.23,29.84,6,1,0,0.00
2014-2-13,30.9,17.5,-1.1,25.5,9.9,-4.7,89,73,55,29.84,29.30,11,4,0,0.00
2014-2-14,26.6,21.1,17.4,19.8,15.8,12.3,89,80,72,29.67,29.32,12,5,0,0.00
2014-2-15,26.8,19.7,14.7,17.8,14.4,8.2,90,80,65,29.85,29.67,12,4,0,0.00
2014-2-16,27.0,21.1,15.4,20.9,16.8,12.2,93,83,71,30.08,29.71,9,3,0,0.00
2014-2-17,25.3,20.4,14.0,23.8,16.5,12.1,94,85,70,30.11,29.46,12,5,0,0.00
2014-2-18,44.8,34.3,21.7,31.6,26.8,19.7,94,76,57,29.79,29.47,17,7,0,0.29
2014-2-19,43.2,36.3,30.4,31.9,29.6,26.9,88,77,60,29.82,29.42,8,4,0,0.00
2014-2-20,49.6,38.5,31.1,49.1,35.5,27.7,98,89,76,29.81,29.08,27,6,0,2.22
2014-2-21,36.5,33.3,30.4,30.4,25.3,17.9,85,72,54,29.65,29.24,26,13,0,0.02
2014-2-22,36.1,30.9,23.0,26.5,20.1,11.7,81,64,49,29.85,29.63,12,5,0,0.00
2014-2-23,28.9,24.3,18.1,19.7,13.8,10.0,78,64,45,29.99,29.84,10,4,0,0.00
2014-2-24,26.6,19.2,11.1,13.6,10.2,5.9,80,68,49,30.04,29.98,12,5,0,0.00
2014-2-25,25.2,19.0,12.0,15.5,10.2,2.6,76,68,57,30.01,29.87,11,5,0,0.00
2014-2-26,16.2,11.0,6.4,5.9,2.8,-2.7,86,69,54,29.98,29.49,22,9,0,0.00
2014-2-27,18.1,9.0,-5.6,10.8,1.9,-9.6,86,73,62,30.02,29.43,19,7,0,0.00
2014-2-28,27.1,12.0,-8.9,14.7,2.5,-13.4,87,66,51,30.06,29.83,14,4,0,0.00